Location: Newark
(18.3602°N, 71.9767°W)
Time: 14:50:03
(UTC+00:00)

Envisat - Visible Passes

Search period start: 27 September 2020 00:00
Search period end: 07 October 2020 00:00
Orbit: 764 x 766 km, 98.1° (Epoch: 27 September)

Date Brightness Start Highest point End Pass type
(mag) Time Alt. Az. Time Alt. Az. Time Alt. Az.
27 Sep 6.2 23:27:09 10° SW 23:29:49 14° W 23:32:28 10° WNW visible
28 Sep 4.8 10:07:17 10° NNE 10:11:56 36° E 10:16:34 10° SSE visible
29 Sep 6.2 09:32:39 10° ENE 09:35:04 13° E 09:37:28 10° SE visible
30 Sep 6.0 23:14:51 10° SW 23:18:25 19° W 23:22:01 10° NW visible
01 Oct 5.4 09:56:17 10° NE 10:00:33 27° E 10:04:49 10° SSE visible
03 Oct 5.6 23:02:52 10° SSW 23:07:02 26° W 23:11:14 10° NW visible
04 Oct 5.9 09:45:28 10° NE 09:49:11 20° E 09:52:52 10° SE visible
05 Oct 6.4 23:30:22 10° WSW 23:32:32 13° W 23:34:42 10° WNW visible
06 Oct 4.6 10:09:53 10° NNE 10:14:38 41° E 10:19:23 10° S visible
06 Oct 5.0 22:51:05 10° SSW 22:55:40 35° W 23:00:15 10° NW visible
